Theta_e
331 332 332 329 326 325 320 319 300 311 306 297 296 296 296 303 303 302 301 304 301 306 306 307 305 307 303 302 302 304 305 302 305 296 299 318 329 329 334 335 338 336 338 344 344 345 347 348 351 351 352 352 352 351 351 350 349 349 349 348 348 348 348 348 347 347 348 348 347 348 348 348 347 346 346 346 346 346 346 347 346 346 346 346 347 347 348 347 347 346 345 344 343 341 340 340 339
332 331 326 327 324 324 314 314 304 299 302 297 295 297 298 303 302 300 299 302 304 305 307 305 305 306 307 305 304 304 304 306 308 307 317 326 328 325 337 336 335 335 335 345 344 344 347 347 348 352 352 352 352 352 351 350 350 349 348 348 348 348 348 348 347 348 348 348 348 348 348 348 348 347 346 346 346 346 345 346 347 346 346 347 347 347 347 346 345 344 344 342 341 340 339 338 337
328 328 324 325 321 318 313 312 300 297 295 292 294 297 302 299 299 301 303 304 305 306 306 305 306 306 306 305 303 304 300 310 309 311 314 325 321 322 335 336 332 335 336 345 343 343 346 347 346 351 352 352 352 351 351 350 349 349 348 348 348 348 348 348 348 348 348 348 348 348 348 348 347 347 347 347 346 345 345 346 346 346 346 346 346 347 346 345 344 343 342 341 339 338 337 336 335
328 331 324 323 313 319 309 306 304 298 294 294 293 300 300 300 300 303 305 305 306 306 307 306 305 308 305 302 305 306 304 306 309 311 312 319 320 328 334 333 332 334 337 344 342 343 345 346 346 350 352 352 352 352 351 351 349 349 348 348 348 348 348 348 348 348 348 348 347 348 348 348 348 347 347 346 345 345 345 345 346 346 346 346 346 346 345 344 342 341 340 339 338 336 335 334 334
328 330 326 320 317 310 310 304 298 297 293 295 293 299 299 300 302 303 304 307 306 306 307 307 305 308 310 305 307 302 303 310 309 312 313 325 327 330 333 335 333 332 338 340 343 343 344 344 345 349 352 352 351 351 351 351 349 349 348 348 348 348 348 348 348 348 348 348 348 348 348 348 347 347 347 346 345 345 344 345 346 346 346 345 345 344 343 342 341 339 338 337 336 335 333 332 331
327 324 328 323 312 314 310 298 298 295 300 300 296 297 300 301 302 303 304 307 307 305 306 305 304 304 305 306 308 303 309 304 310 315 321 323 327 331 333 334 326 333 338 339 343 342 344 342 346 348 352 352 351 351 351 350 350 349 349 348 348 349 348 349 348 348 348 348 348 348 348 348 348 347 347 345 345 344 343 345 345 345 344 344 344 343 342 340 338 337 336 335 335 334 331 329 328
325 321 319 318 317 311 301 296 295 296 300 303 298 299 300 301 303 304 304 304 306 306 306 306 306 305 302 307 309 309 312 314 311 323 327 327 328 330 334 329 326 331 339 339 340 342 345 342 347 350 351 351 351 351 351 350 349 349 349 348 348 348 348 349 348 348 348 348 348 348 348 348 347 347 346 344 343 343 343 342 342 343 342 342 342 341 340 338 337 335 335 333 333 332 329 327 326
325 319 318 307 306 303 299 298 298 300 300 302 302 302 302 303 304 304 303 304 304 305 304 307 306 304 302 308 302 311 312 316 323 324 325 327 333 333 333 327 325 325 338 338 338 340 341 341 347 348 350 351 351 351 351 350 350 349 349 349 349 348 349 349 348 348 348 348 348 348 348 347 347 346 345 343 342 342 342 339 338 340 340 340 338 338 337 337 334 334 333 333 331 330 327 325 324
321 316 318 309 301 306 299 298 298 301 302 302 302 310 308 305 305 304 303 305 305 306 306 305 305 301 303 304 303 311 312 318 318 320 323 325 331 332 333 329 327 327 336 336 338 343 341 340 345 347 348 350 351 351 351 351 350 349 349 349 348 348 348 348 348 348 348 349 348 348 348 347 347 345 343 342 342 341 339 339 338 339 337 338 337 336 336 334 333 332 332 332 331 328 326 324 323
317 313 306 307 305 296 297 297 298 299 301 302 302 303 303 304 304 306 304 303 304 305 305 306 305 301 304 302 304 309 310 316 318 320 320 321 330 331 330 333 333 332 335 334 337 343 341 339 340 343 347 349 350 350 351 350 350 350 349 349 348 348 348 349 348 348 348 348 348 348 348 347 346 345 343 341 340 339 338 337 338 337 338 336 336 335 334 331 331 331 331 331 329 327 325 324 323
310 314 315 303 300 295 298 295 297 299 299 302 302 306 305 304 305 303 304 304 306 305 304 305 303 302 304 303 304 316 314 313 314 316 317 321 326 325 327 333 334 334 333 335 336 340 341 340 336 340 343 345 347 348 349 350 350 350 349 349 348 349 349 349 348 348 348 348 348 348 347 347 346 344 343 341 340 338 338 337 337 337 337 335 334 332 332 331 330 331 330 330 328 325 324 323 322
309 306 309 299 296 296 296 295 297 298 300 301 301 304 304 305 305 302 303 301 302 301 302 304 303 305 301 301 307 311 313 315 319 318 319 322 320 325 328 330 335 336 336 336 336 336 341 340 337 337 337 338 343 345 346 347 348 348 348 349 348 348 348 348 348 348 348 348 348 347 347 347 345 344 343 341 339 338 338 336 336 336 336 336 334 331 330 329 330 330 329 329 326 325 324 323 321
310 310 303 299 297 298 297 294 297 297 298 299 301 304 303 304 302 303 302 301 301 301 303 305 306 305 300 301 307 310 313 315 318 318 320 317 318 325 330 330 333 336 337 335 334 334 338 340 340 338 336 333 334 337 340 342 344 345 346 347 347 347 347 348 348 348 348 348 348 348 347 345 344 344 342 340 338 337 336 335 334 335 335 332 330 330 329 329 329 329 329 327 325 324 323 322 320
311 312 306 299 300 297 297 297 297 296 296 300 302 303 305 302 304 304 301 300 300 301 306 307 306 304 300 302 304 307 312 316 313 315 315 319 322 324 328 328 331 333 333 335 333 334 335 339 340 340 339 336 338 334 333 338 340 343 343 343 344 344 345 346 347 347 347 346 345 344 343 341 342 343 340 339 337 336 335 332 332 333 332 332 331 330 329 329 328 328 327 325 325 324 322 321 319
309 312 304 302 297 297 298 295 298 296 294 300 302 303 303 305 304 306 302 300 301 306 308 308 309 304 297 301 301 310 309 315 315 315 319 320 323 323 327 328 332 331 331 334 334 333 335 335 338 339 339 339 340 339 339 336 334 338 340 340 341 342 343 344 345 343 343 343 342 340 337 335 335 336 338 337 335 334 332 333 332 331 331 331 330 329 329 328 328 327 326 325 324 323 321 319 317
314 309 306 300 295 296 297 300 301 297 297 300 302 303 303 304 305 304 304 305 304 307 307 302 307 302 303 302 303 310 314 315 315 317 316 318 321 322 325 327 327 328 328 330 333 333 333 335 334 336 339 340 340 340 340 340 332 331 335 337 338 340 341 341 341 339 338 336 336 334 330 329 327 330 328 329 331 331 329 325 330 331 330 331 330 329 329 328 327 327 326 325 324 322 321 318 315
312 312 300 298 294 296 298 298 299 294 299 302 302 303 302 301 304 306 306 306 302 303 304 305 304 306 304 305 307 313 312 315 315 316 315 316 317 317 319 320 322 324 329 329 330 331 332 334 334 334 336 338 339 339 339 339 338 330 331 332 333 335 336 337 338 332 329 328 328 326 324 330 328 327 325 326 324 324 322 322 329 331 330 332 332 330 328 328 327 326 326 325 324 322 318 315 313
312 302 298 295 296 296 300 299 300 301 298 299 302 303 301 299 303 305 304 303 302 303 303 305 306 306 308 308 309 311 313 313 314 313 314 313 315 312 315 317 319 320 324 326 329 330 331 332 333 333 333 335 336 337 338 338 338 333 336 335 333 333 330 329 332 335 328 332 324 326 329 330 330 326 325 324 323 322 321 321 324 329 330 330 331 330 328 328 326 325 325 325 323 319 315 306 307
306 300 299 294 299 300 304 302 302 300 300 302 302 302 301 301 301 304 300 300 301 301 302 303 303 304 307 308 309 308 312 311 311 312 310 311 313 312 313 316 318 318 321 324 327 329 331 332 333 333 333 334 334 335 336 335 335 335 337 337 336 330 331 330 334 332 333 333 329 327 327 329 329 326 325 323 323 320 320 320 323 326 329 328 329 329 328 327 326 325 324 323 320 316 309 302 300
305 301 295 297 302 303 304 304 303 304 303 302 302 302 301 302 302 305 300 299 300 299 300 300 301 302 303 304 307 308 308 311 310 310 309 307 308 310 311 313 318 318 320 324 325 329 330 331 332 333 333 333 333 333 333 332 332 335 337 337 337 335 335 333 334 333 333 332 330 328 327 328 327 326 323 321 322 321 319 319 321 323 324 324 323 324 326 326 325 324 324 322 317 311 306 305 301
305 301 297 300 301 300 302 304 304 304 304 302 302 302 301 302 302 303 301 298 299 301 303 302 301 302 304 304 305 305 305 306 307 309 308 308 308 308 307 307 309 319 320 324 325 327 329 330 331 332 332 333 332 332 331 331 330 333 336 336 336 335 335 334 334 334 333 333 330 328 328 327 327 325 323 321 321 321 318 318 319 319 319 317 318 316 317 318 319 315 314 311 304 303 303 302 303
307 300 303 303 303 300 303 303 303 303 304 303 302 300 300 303 303 301 300 297 297 300 303 304 304 305 305 305 305 305 305 305 304 304 306 307 307 307 307 306 309 308 320 320 324 326 328 329 330 331 332 332 332 332 331 330 330 328 332 334 333 332 333 333 333 333 333 333 331 328 327 327 325 324 321 321 321 320 319 318 318 318 319 317 318 316 315 315 313 310 308 306 303 302 301 300 300
298 302 303 304 304 301 304 304 304 302 303 301 301 302 303 301 300 302 301 300 303 306 306 306 307 307 307 307 306 305 304 304 304 304 305 304 305 305 307 306 306 308 310 317 323 325 327 328 329 330 330 331 331 332 331 330 329 329 328 329 331 330 330 331 331 331 332 331 330 328 326 325 324 322 321 320 319 319 318 318 317 316 317 317 316 315 315 314 312 308 305 304 301 300 300 301 301
302 299 302 302 303 301 303 302 302 301 301 301 303 303 301 300 297 301 300 303 305 306 306 306 307 307 307 306 306 305 305 305 304 305 305 305 305 306 307 307 306 306 309 311 318 322 325 327 328 329 330 330 331 332 331 330 329 329 328 326 327 327 327 327 327 327 328 329 329 327 325 325 323 322 321 320 318 318 317 317 317 316 316 316 316 315 314 312 311 306 302 301 300 300 300 299 299
299 300 303 303 302 302 302 302 302 302 302 303 302 300 300 301 300 301 300 303 305 305 306 306 306 306 306 305 304 304 304 305 305 305 306 305 308 308 311 310 308 308 307 311 315 318 323 326 327 328 329 329 331 332 331 330 329 329 328 327 326 325 327 327 326 327 326 326 327 327 324 324 322 321 320 319 318 317 316 316 316 316 316 315 316 313 314 311 308 302 300 300 300 299 298 298 298
300 300 300 301 301 303 302 302 301 301 302 302 300 300 301 301 303 300 302 303 305 305 304 305 305 304 304 303 302 303 303 304 305 304 305 306 310 307 308 308 307 306 308 309 312 315 317 325 326 327 328 329 329 330 330 329 328 328 328 328 327 325 326 327 326 326 326 326 325 326 325 324 322 321 319 318 318 316 316 316 315 315 315 314 314 313 309 307 302 299 299 300 299 298 298 298 297
301 300 300 300 300 300 301 300 301 301 300 300 298 299 299 301 300 295 302 303 304 303 303 303 303 303 303 303 303 303 302 303 304 304 307 309 309 308 307 309 307 307 307 308 310 313 315 318 323 324 326 325 328 328 329 329 328 327 327 327 327 325 326 326 325 325 325 325 325 326 325 324 322 321 319 319 317 316 315 315 314 314 314 314 313 311 308 304 300 299 300 298 298 297 297 296 296
300 300 299 299 299 300 300 300 300 300 299 300 300 298 300 300 300 297 301 303 303 302 303 303 302 302 303 303 303 303 303 303 303 306 308 306 305 305 306 306 307 307 309 308 309 311 315 315 318 322 324 324 325 326 326 327 327 327 326 327 327 326 326 325 324 325 323 324 324 326 325 323 321 321 320 319 317 315 314 314 313 313 313 310 311 306 304 302 299 299 298 298 297 297 296 295 297
299 298 294 296 298 297 299 299 300 300 299 300 300 295 295 296 294 300 302 303 303 301 301 301 301 302 301 302 303 301 301 302 304 303 305 303 305 305 304 306 309 309 309 310 310 311 311 313 314 318 321 322 323 324 325 325 325 326 325 325 325 326 325 325 324 324 324 324 323 324 324 323 321 321 319 319 315 314 312 313 311 311 311 309 308 303 302 299 298 298 299 299 297 297 296 295 297
300 298 295 294 295 294 300 302 301 299 299 299 298 287 291 297 300 302 304 303 302 300 300 301 301 301 301 301 301 301 301 303 302 304 305 304 305 305 304 305 306 306 306 305 311 311 312 316 319 318 318 320 321 322 323 322 323 323 324 323 323 324 324 324 324 324 323 322 322 323 323 323 322 321 319 317 315 313 312 311 310 309 307 306 305 302 300 298 297 298 298 297 299 296 295 295 293
294 297 296 291 290 290 300 301 296 297 298 299 298 289 291 297 300 302 302 302 301 300 300 300 301 301 300 300 301 302 302 303 302 303 304 304 304 304 304 305 305 305 305 305 305 309 311 313 317 316 316 316 318 319 319 320 321 321 321 321 322 322 323 323 322 323 322 322 322 321 322 322 321 320 318 316 313 312 311 309 308 307 307 305 303 300 299 298 298 298 296 296 295 294 294 295 294
296 291 288 292 289 292 299 302 297 296 296 298 296 289 291 295 299 301 301 301 301 299 299 300 300 301 301 300 300 300 301 301 301 301 302 302 303 303 303 303 304 304 303 303 304 305 309 309 314 314 315 316 317 317 317 318 320 320 320 319 321 320 320 320 320 320 320 320 320 319 320 321 320 320 317 315 313 311 310 308 308 306 306 303 301 299 299 297 296 297 296 295 293 293 293 292 293
294 291 289 290 292 293 296 300 298 299 296 296 295 289 293 294 299 300 301 300 300 299 299 300 300 301 300 299 301 301 299 299 299 299 300 300 301 301 302 302 302 302 302 302 302 303 305 307 310 313 313 315 315 318 317 317 318 319 320 319 320 319 319 319 320 319 318 318 316 316 317 319 318 319 316 314 312 310 308 307 307 306 304 302 300 299 297 296 296 296 294 294 293 292 292 291 292
291 294 291 294 292 293 291 299 299 298 296 292 295 291 291 294 297 299 300 300 299 299 299 299 300 298 299 300 299 298 298 297 296 297 298 299 299 300 301 301 301 300 301 301 302 302 303 305 307 311 311 312 312 314 316 315 316 316 317 317 317 317 318 318 319 318 318 317 315 314 315 316 315 316 314 312 311 310 307 306 305 304 302 301 299 298 297 296 295 295 293 293 293 293 291 291 292
291 291 290 292 294 294 294 293 296 295 295 293 292 292 292 294 297 298 300 301 300 298 299 299 299 298 299 299 298 297 296 295 296 297 298 297 298 298 299 299 299 300 301 301 301 302 302 303 305 308 308 309 310 312 314 314 315 315 315 315 314 314 315 316 316 317 316 315 314 313 314 315 312 313 312 310 310 308 305 304 304 302 301 300 299 297 296 295 295 294 293 293 293 293 292 292 292
293 294 292 293 290 291 292 297 300 300 296 294 293 292 293 295 296 297 299 300 299 298 299 299 299 298 298 298 297 296 295 295 297 297 297 297 297 298 297 298 298 299 299 300 300 301 301 302 303 304 307 306 308 310 313 311 312 310 310 311 311 311 311 311 313 313 313 312 313 313 313 312 312 312 310 308 307 306 304 302 301 301 300 299 298 296 295 294 294 294 293 293 292 292 293 293 293
296 295 294 292 292 293 296 297 300 295 294 292 293 292 292 293 295 297 299 299 298 298 298 298 298 297 297 296 296 295 295 295 297 297 297 297 297 297 297 297 297 297 298 298 299 300 300 301 301 301 304 305 305 307 309 308 307 308 308 309 309 310 309 310 310 310 311 310 309 309 309 309 310 310 310 309 309 306 305 301 300 298 298 298 297 296 295 294 294 294 293 293 292 291 291 292 293
295 294 292 292 293 291 296 296 299 296 293 291 293 292 292 294 296 297 299 298 297 298 297 297 296 296 296 295 294 294 295 296 296 295 296 295 295 296 296 295 296 295 296 297 297 298 299 300 300 301 303 304 304 304 305 307 308 308 308 308 308 308 307 307 307 308 309 309 308 307 307 306 307 307 307 307 307 306 304 301 299 298 297 297 296 295 294 294 294 294 294 291 292 291 290 292 293
295 292 291 290 291 294 297 297 298 295 293 289 292 290 292 294 296 297 298 298 298 298 297 296 295 295 295 295 294 294 294 293 293 294 294 294 294 294 294 295 295 295 295 295 296 297 297 298 299 300 301 301 302 302 303 304 307 308 307 306 306 305 307 307 306 306 306 306 305 304 305 305 304 304 304 304 306 306 304 301 300 298 297 296 295 295 294 293 293 293 293 292 291 290 291 293 292
292 291 288 287 292 291 288 294 293 294 292 289 291 290 291 295 296 297 298 299 298 298 298 297 296 294 294 294 294 293 292 292 292 292 292 293 293 293 293 293 294 294 294 294 295 295 296 296 298 299 299 300 300 301 301 302 306 306 305 305 305 303 301 303 304 303 303 303 302 303 303 303 303 302 303 303 303 304 303 302 300 298 297 296 296 295 293 293 293 293 293 291 292 290 290 292 292
294 293 291 291 292 293 292 291 294 294 294 294 292 289 289 292 292 294 298 299 297 297 296 296 296 296 295 295 294 294 292 291 291 291 291 292 291 291 292 293 293 293 294 294 294 294 295 295 296 297 298 298 299 300 301 301 302 302 303 303 302 302 302 301 300 300 300 301 300 301 302 303 303 302 301 301 301 301 301 301 299 297 296 296 295 295 294 294 294 294 294 292 291 291 289 290 291
291 294 295 294 294 293 293 293 291 288 286 293 291 282 284 291 293 295 298 296 294 294 294 294 294 294 293 292 292 293 293 292 291 291 291 291 291 291 291 292 292 292 293 294 294 295 294 294 295 296 296 297 298 299 300 300 300 300 300 299 298 298 297 298 297 298 299 299 299 300 301 301 302 301 301 300 300 299 300 300 299 297 295 295 295 295 294 293 293 293 293 293 291 290 290 289 290
289 290 294 294 293 293 292 291 290 282 281 289 291 283 281 290 291 294 296 296 292 293 293 293 293 293 292 292 292 291 291 291 291 291 291 290 290 290 291 291 291 292 292 293 294 294 294 294 294 295 295 295 297 298 299 299 298 299 299 299 298 298 297 298 299 299 299 299 299 299 299 300 300 300 299 300 299 298 298 298 298 297 296 295 294 294 293 293 294 294 293 293 292 292 289 289 290
287 294 295 295 292 292 292 292 289 285 290 292 291 288 281 283 289 294 296 296 292 291 291 292 292 292 291 291 291 290 290 290 290 290 290 290 290 290 290 290 291 291 292 292 293 294 294 294 294 294 294 294 295 296 297 298 297 297 297 297 297 297 297 297 298 298 298 297 297 298 298 298 298 299 298 298 298 298 297 297 297 296 296 294 294 293 293 292 293 294 293 293 292 292 291 290 289
291 294 294 292 291 292 291 289 286 286 285 281 286 290 282 281 288 295 296 293 290 289 290 291 291 291 291 291 291 290 290 290 290 289 289 289 289 290 290 290 291 291 292 291 292 292 293 293 294 294 294 294 294 294 295 296 296 296 296 296 295 296 296 297 297 298 297 296 297 296 297 297 296 297 297 297 297 297 296 296 295 295 295 294 293 294 293 292 292 292 292 292 292 292 291 291 289
295 295 294 294 293 293 291 285 285 284 282 280 283 289 282 283 290 291 293 293 289 288 290 291 291 291 290 290 290 290 290 289 289 289 289 289 289 290 290 290 290 291 291 292 291 291 292 292 292 293 293 293 294 294 294 294 294 295 294 294 294 294 295 296 296 296 296 296 295 296 296 296 295 295 295 296 296 296 296 295 295 295 295 295 293 292 291 292 292 291 292 292 292 291 291 291 290
296 296 293 291 291 288 288 286 285 283 278 281 287 289 286 279 287 289 289 291 289 289 289 290 290 290 290 290 290 290 289 289 288 289 289 289 289 289 289 289 289 290 290 290 290 290 290 291 291 291 291 293 293 293 293 293 293 293 293 293 293 293 293 294 293 294 294 294 295 295 294 295 295 294 294 294 294 294 294 294 294 294 294 294 294 293 292 292 292 291 292 291 291 291 290 290 291
295 290 288 287 286 286 284 283 283 277 278 283 288 289 289 278 281 289 290 292 292 291 289 289 288 288 289 289 289 289 288 288 288 288 288 289 288 288 288 288 288 289 289 289 289 290 289 289 289 289 290 291 291 292 292 292 292 292 292 292 292 292 292 293 292 292 293 292 293 293 294 294 294 294 293 293 293 293 293 293 293 293 293 293 294 294 293 292 292 291 291 291 290 290 290 289 288
290 288 286 282 281 282 278 280 275 277 277 283 286 289 284 284 288 292 292 291 292 292 291 290 289 288 288 288 288 288 287 287 287 286 287 288 287 287 287 288 288 288 288 289 289 289 289 288 288 288 288 289 290 290 290 290 290 290 291 291 291 291 291 291 291 291 292 292 292 292 292 292 292 293 292 292 291 292 292 292 292 292 293 293 293 292 292 292 291 290 290 288 289 288 289 288 287
287 285 283 281 277 276 274 277 280 280 283 282 285 287 281 286 289 292 290 289 290 290 290 289 288 287 287 287 287 287 287 286 286 286 286 286 287 287 287 287 288 288 288 288 288 288 288 288 287 287 287 288 289 289 289 290 289 289 289 290 290 290 290 290 290 290 291 291 292 292 292 292 291 292 292 292 293 292 292 292 292 292 292 291 291 292 292 291 290 290 289 287 287 288 287 287 288
287 290 287 282 281 278 272 277 274 276 279 284 286 281 279 278 285 287 289 289 289 288 288 288 288 287 287 286 286 286 285 285 285 285 286 286 287 287 287 287 287 287 287 287 287 288 287 287 287 286 286 287 287 288 288 288 289 289 289 289 289 289 289 289 289 290 290 290 290 291 291 291 291 291 292 292 293 294 292 292 291 290 290 290 290 290 292 290 290 290 289 288 288 287 287 287 287
291 291 292 285 282 287 281 282 280 280 280 280 281 280 283 287 289 289 289 289 288 288 287 287 286 286 286 285 285 285 285 285 285 285 285 285 286 286 286 286 286 286 286 286 287 287 286 286 285 285 285 286 286 286 287 287 288 288 287 287 287 287 288 288 288 289 289 289 289 289 289 290 290 291 291 292 292 292 291 289 289 288 289 289 289 289 288 288 287 288 288 288 287 288 287 286 286
287 287 282 286 291 290 283 283 285 282 281 279 284 284 288 290 288 288 287 286 286 286 286 286 285 285 285 284 284 284 285 284 284 284 284 284 284 285 286 285 285 286 286 286 286 287 286 285 285 284 284 284 285 285 286 286 287 286 286 286 286 286 286 285 286 286 287 288 288 288 288 289 289 289 290 291 290 290 290 290 289 289 288 287 287 287 287 286 286 287 288 287 287 286 286 286 286
287 281 286 292 294 292 285 278 281 279 277 279 284 280 282 282 279 286 286 284 285 285 285 285 285 285 284 284 283 284 284 284 284 284 284 284 284 284 285 285 285 285 285 285 286 286 285 285 283 283 283 282 283 284 284 284 283 284 284 284 285 285 284 284 285 285 285 285 286 287 286 286 287 288 288 289 288 288 288 288 288 288 288 286 286 287 286 287 286 288 287 287 287 287 286 286 286
289 288 294 285 281 281 285 283 276 277 276 278 281 282 282 283 284 285 284 283 284 284 285 284 284 283 283 283 283 283 284 284 284 284 284 284 283 284 284 285 285 285 286 286 286 285 285 284 283 283 282 282 281 282 281 282 281 283 285 283 282 283 283 283 283 283 283 283 283 284 284 285 285 286 286 286 286 286 287 287 286 287 287 287 286 286 287 287 286 287 287 287 286 286 286 286 286
294 294 288 293 286 284 282 284 283 282 277 277 277 281 278 287 285 287 287 285 285 284 284 283 283 284 283 283 283 283 283 284 284 284 284 284 284 284 284 284 285 286 286 286 286 285 284 285 283 282 281 280 280 281 281 281 281 281 282 280 281 281 281 281 282 282 282 282 283 283 283 284 285 285 285 285 285 285 285 285 286 286 286 286 286 286 286 286 287 287 287 287 286 285 285 286 286
283 284 282 286 284 287 285 283 281 279 276 276 275 275 280 285 287 286 286 286 285 285 283 283 283 283 283 283 283 283 283 283 283 283 284 284 284 284 284 285 285 285 285 286 287 287 286 286 284 283 282 281 280 281 281 281 281 280 280 280 281 281 281 281 281 281 282 283 283 284 284 285 285 285 285 285 285 285 285 285 285 285 285 286 286 286 286 285 286 286 286 286 285 285 285 285 285
287 285 282 286 282 281 278 277 285 281 280 277 277 275 281 287 288 288 286 286 286 285 284 283 283 283 283 283 283 283 284 283 283 283 283 284 284 285 285 285 286 285 285 285 286 286 285 284 284 283 282 281 280 281 281 281 281 281 280 280 280 280 281 280 280 280 281 282 283 283 284 284 284 285 285 285 285 286 286 285 285 285 285 285 286 286 286 285 286 285 285 286 286 285 285 284 284
Wind_Speed
6 6 6 4 4 3 4 2 2 1 1 5 3 5 1 1 1 1 6 4 2 2 3 1 2 2 2 2 3 4 3 2 2 3 1 2 1 3 4 4 1 5 5 9 9 10 10 14 16 15 14 14 13 13 11 10 11 11 10 11 11 10 11 11 11 11 11 10 9 9 9 8 8 7 7 7 6 6 5 4 3 3 3 5 6 7 9 9 10 10 9 9 9 8 7 7 8
6 4 3 3 3 2 1 2 1 3 3 3 4 3 1 0 1 5 4 4 2 2 2 1 2 2 3 5 4 3 6 7 2 1 3 3 3 1 4 3 3 6 5 9 10 10 9 11 15 16 15 14 13 13 12 11 11 11 11 11 11 11 11 11 11 11 10 9 9 8 8 8 9 8 8 7 6 6 5 5 4 4 4 6 6 8 8 9 9 9 9 8 7 6 6 7 8
6 5 3 4 3 2 3 1 2 4 5 2 2 3 1 3 5 3 4 4 3 2 1 2 1 1 3 4 3 2 1 1 2 2 3 5 5 2 4 2 3 5 5 8 9 10 9 10 14 16 16 15 14 14 12 12 13 12 11 11 11 11 11 11 11 11 10 9 9 8 8 8 8 9 9 8 8 7 6 5 5 5 5 6 8 8 8 8 8 9 7 6 5 5 6 6 7
5 5 3 3 2 2 2 1 2 3 4 3 4 2 2 1 3 3 2 4 2 0 0 2 2 2 1 3 2 4 2 1 4 2 3 2 1 5 4 3 3 3 4 6 9 8 8 12 15 16 15 15 15 14 13 12 13 12 12 12 11 11 10 11 10 10 10 9 9 9 9 9 8 9 9 9 8 8 7 6 5 5 6 8 8 8 8 8 8 8 6 5 4 4 5 6 6
3 4 2 3 1 1 1 2 3 2 2 2 2 3 4 4 3 4 3 1 4 1 0 1 1 1 0 2 2 1 2 1 5 2 3 1 1 5 5 3 3 3 4 4 9 8 7 15 14 15 16 16 16 14 14 12 13 14 13 12 12 11 10 10 10 10 10 10 10 10 9 9 10 9 10 10 9 8 8 7 7 7 7 8 8 8 7 7 7 5 4 4 4 3 4 5 6
5 5 3 1 0 1 0 2 3 6 1 3 3 3 3 5 4 5 4 3 5 4 2 1 1 3 0 2 2 2 3 2 1 2 1 1 2 3 6 4 4 3 4 4 7 7 7 17 14 13 15 16 17 16 15 14 15 14 13 14 13 12 11 11 10 11 11 10 10 10 10 11 11 11 11 10 10 8 9 8 9 8 8 7 7 7 6 6 4 3 3 3 3 3 4 5 5
2 2 1 1 2 1 1 3 5 4 2 1 2 4 4 4 4 4 4 3 1 4 2 0 3 3 2 2 2 3 1 3 0 1 2 4 2 4 6 4 3 4 6 4 4 7 11 17 16 13 14 14 16 15 15 16 16 15 15 15 14 13 12 11 11 11 11 11 11 10 9 10 11 11 12 10 10 9 8 7 5 8 7 6 5 4 4 4 2 1 2 1 3 3 5 5 6
2 0 0 1 1 1 2 3 5 2 1 3 2 1 3 3 3 2 3 2 0 0 2 1 1 1 6 3 1 1 5 3 7 6 6 5 4 5 5 4 4 4 6 4 3 4 14 18 18 15 14 14 14 14 15 16 16 16 15 15 15 14 13 12 12 12 12 11 11 10 10 11 11 12 11 10 9 9 9 6 2 4 6 6 3 2 1 3 2 1 2 3 2 3 5 6 6
2 1 0 0 2 2 2 4 4 2 1 4 2 1 2 2 1 1 3 2 3 1 1 3 3 0 1 5 3 3 3 5 7 6 6 5 5 5 3 4 4 4 5 5 3 6 10 16 17 17 14 14 14 14 15 15 16 16 16 16 15 14 14 13 13 12 11 10 10 11 12 12 13 12 11 11 10 9 6 5 4 2 2 4 3 1 2 3 4 2 3 3 3 4 5 6 6
1 1 1 1 2 3 3 4 3 3 1 3 1 1 4 4 3 0 1 4 3 2 3 3 1 3 4 4 5 3 3 5 7 4 4 4 5 4 4 4 4 4 6 5 4 6 6 12 16 16 15 14 13 13 14 14 15 14 15 15 15 14 14 13 14 13 11 10 11 12 12 13 12 12 12 10 9 9 8 5 4 2 5 3 4 3 2 2 1 3 3 4 4 5 5 6 6
1 2 1 1 2 4 3 4 6 4 4 2 1 9 5 1 1 3 3 2 3 1 3 4 3 3 3 3 3 1 5 5 5 6 4 4 3 4 4 4 2 4 5 5 4 6 7 8 12 14 14 14 13 12 13 13 14 14 14 13 15 13 13 13 13 13 12 12 12 12 13 13 13 12 12 11 9 8 7 6 3 3 3 4 3 4 4 2 2 3 3 4 6 5 5 6 6
2 2 1 2 3 3 3 3 4 3 4 4 2 5 1 2 2 2 3 4 5 4 5 7 1 2 3 3 1 1 4 3 4 5 5 4 2 3 3 3 1 3 4 5 4 4 7 7 7 10 13 12 12 12 12 12 13 12 12 12 13 11 12 13 13 13 13 12 12 13 14 14 14 13 13 12 10 9 8 7 6 3 6 6 5 4 3 3 3 2 3 6 5 5 6 6 6
2 4 1 3 3 3 4 5 2 4 5 3 5 3 1 1 2 3 3 4 4 6 3 4 3 2 2 4 1 5 3 1 3 4 4 4 4 4 1 4 3 3 3 5 4 4 7 8 8 7 9 12 10 11 11 12 12 12 11 11 11 11 11 11 11 11 12 12 12 13 12 12 12 10 13 13 11 10 9 8 7 6 9 9 4 5 5 5 4 3 4 5 4 5 6 6 6
2 2 3 2 5 4 3 3 5 3 2 3 3 3 1 1 1 1 2 4 4 3 1 2 1 4 5 3 5 4 2 3 4 3 2 2 4 4 3 2 4 4 3 5 4 4 5 8 7 7 8 8 7 8 10 12 12 12 11 11 10 10 10 10 10 11 11 12 12 12 12 11 12 11 13 12 11 10 9 8 7 7 7 7 6 6 5 6 4 4 5 4 5 5 5 6 6
2 3 1 2 3 4 4 3 2 4 4 4 1 3 0 2 1 0 3 4 5 4 1 3 2 1 2 2 1 1 4 5 4 3 3 1 2 2 4 1 3 2 3 5 4 4 5 5 8 8 8 8 8 7 6 8 12 12 12 12 11 11 10 10 10 10 10 11 11 11 10 9 10 11 13 11 10 10 9 8 8 7 8 8 8 7 7 7 6 5 6 5 6 6 6 6 6
1 3 1 2 3 3 3 0 2 1 2 4 2 3 0 5 3 0 1 1 3 5 2 2 2 3 4 5 7 1 5 6 5 4 4 3 1 2 3 1 3 4 2 4 5 5 5 6 5 8 9 9 9 8 8 8 10 12 12 11 12 11 11 11 10 10 11 10 10 10 8 7 8 8 11 9 11 11 11 8 7 6 8 8 9 9 9 7 8 7 7 7 8 7 7 7 7
1 0 1 3 5 4 2 3 0 2 3 2 3 3 0 3 2 0 2 2 4 8 5 5 4 4 8 8 9 1 6 6 7 5 4 4 4 3 3 3 3 4 4 4 5 6 6 6 6 7 8 10 10 10 8 9 9 12 10 11 12 12 11 11 10 11 10 8 7 8 8 5 4 4 6 5 10 8 11 11 9 6 7 6 7 9 10 9 9 9 9 9 9 9 9 8 7
0 1 2 3 5 5 3 4 3 3 3 4 1 2 5 3 0 0 1 2 5 8 9 8 9 10 9 10 8 3 6 8 6 6 5 5 5 5 5 5 5 7 6 6 6 6 7 7 8 7 8 11 10 9 7 7 7 12 9 7 7 9 9 9 8 7 7 5 7 7 6 6 5 5 5 6 5 7 9 11 10 7 7 3 5 8 10 10 10 10 10 10 11 11 10 5 4
2 2 2 4 3 4 8 5 6 4 5 7 6 4 4 5 6 1 4 4 5 8 9 7 10 8 12 13 9 6 7 6 7 7 6 5 6 6 7 6 7 5 6 6 7 8 7 7 6 8 7 9 10 9 7 7 8 8 9 8 7 8 8 8 7 7 6 6 7 6 6 6 6 6 6 6 6 9 8 10 10 9 6 4 5 7 9 10 11 11 11 10 11 11 6 5 4
4 3 3 5 4 5 5 4 5 3 4 5 5 5 6 5 5 2 4 6 5 9 10 6 7 9 6 5 3 8 8 8 8 8 7 6 6 6 5 6 7 7 8 9 9 8 9 9 10 10 8 8 9 8 7 7 7 8 8 8 8 8 8 7 7 7 6 6 7 7 6 6 6 6 9 13 10 7 8 10 11 10 7 6 8 6 8 9 11 11 10 9 7 4 4 5 5
3 4 3 3 4 6 6 8 7 6 5 4 4 5 7 5 4 2 4 6 6 9 9 9 8 9 12 9 9 7 5 4 4 8 7 6 6 6 6 6 6 9 9 8 7 9 11 10 9 9 9 8 8 8 8 7 6 7 8 8 8 8 8 7 7 7 7 7 7 7 7 5 6 6 7 6 7 7 6 6 6 6 5 5 8 4 5 4 5 5 4 5 4 4 4 5 6
2 4 4 5 5 6 7 9 7 4 4 3 4 5 5 4 4 3 4 7 9 7 8 10 11 10 10 12 10 6 6 6 6 4 6 7 8 7 5 5 5 4 7 7 9 9 10 11 10 9 9 8 9 8 8 7 8 6 8 8 8 7 7 8 7 7 7 8 6 7 7 7 6 6 6 7 7 7 7 6 7 6 6 6 5 6 6 5 5 6 5 4 5 5 4 3 3
4 4 7 7 7 8 5 4 1 2 3 5 5 5 5 5 6 6 8 12 12 10 10 13 14 11 10 9 9 9 8 7 6 6 6 6 6 5 6 5 5 6 6 8 8 7 9 9 9 8 9 9 10 8 7 7 8 7 7 7 8 8 7 8 8 8 8 6 6 6 7 7 6 6 7 7 6 6 7 7 7 6 6 6 6 7 6 6 6 6 6 6 6 5 3 3 3
4 6 3 9 10 13 10 8 7 3 6 5 4 5 7 7 10 4 7 12 13 11 10 13 14 11 9 10 8 8 8 8 6 6 5 6 6 7 6 6 6 5 5 6 7 7 8 10 10 9 9 9 8 10 9 8 7 8 7 8 8 9 8 7 7 7 7 8 6 6 7 7 7 6 7 7 6 6 7 7 7 6 6 7 6 6 6 6 6 6 6 6 5 4 4 4 3
4 5 5 7 6 5 5 5 4 5 7 6 5 6 10 8 9 5 12 14 15 13 11 12 12 11 10 8 8 7 8 7 6 6 6 5 5 6 5 5 5 5 5 6 7 6 8 10 11 11 10 11 9 9 10 9 8 8 7 7 7 7 7 7 7 7 7 7 7 7 7 7 7 6 7 7 6 6 6 7 7 7 7 7 7 6 6 7 7 7 7 7 5 5 4 4 4
4 4 4 4 4 6 7 10 10 8 7 3 4 10 9 10 9 11 14 15 15 11 9 12 12 10 9 7 6 7 7 7 7 6 6 5 5 5 5 6 5 5 6 5 4 5 5 8 11 11 11 11 10 9 9 8 9 9 10 9 7 7 7 7 6 7 7 7 7 7 8 7 7 7 7 7 7 6 6 7 7 7 7 7 8 8 6 7 7 7 6 6 6 6 5 4 4
3 4 5 8 8 8 7 10 12 10 8 4 6 11 10 6 3 8 7 11 9 8 9 6 7 8 6 6 7 7 6 6 7 6 3 2 3 4 5 4 4 6 4 4 3 4 5 6 7 9 9 8 8 9 9 10 8 9 9 9 8 8 7 7 7 7 7 7 7 8 7 7 6 6 7 6 6 6 6 7 7 7 7 7 8 7 6 7 7 7 7 7 7 7 6 5 5
5 6 7 9 9 10 12 12 14 8 7 7 6 12 11 8 4 12 15 13 8 8 9 8 7 6 7 9 8 5 5 5 4 3 4 4 4 4 4 5 5 5 4 5 4 3 4 5 6 7 8 8 8 8 6 7 8 8 7 7 8 7 7 7 7 7 8 7 7 8 7 7 7 7 7 7 7 7 6 6 6 6 7 7 7 6 7 7 7 6 6 6 5 6 7 6 6
3 4 6 9 10 11 11 12 11 6 6 5 3 4 11 6 5 14 15 14 7 5 5 7 6 5 5 6 8 6 5 4 3 5 5 4 2 3 4 4 1 2 3 5 5 3 4 5 4 5 7 6 7 7 7 6 5 4 5 6 6 6 7 7 7 7 7 7 7 8 9 9 7 7 7 8 8 7 6 7 6 6 6 6 6 6 6 5 5 6 6 5 6 6 7 5 5
2 4 6 10 9 7 10 11 8 11 0 9 6 3 6 9 7 7 7 2 2 5 8 8 5 6 6 5 5 5 5 5 6 11 14 15 15 14 14 14 15 14 11 8 2 2 3 1 3 3 5 6 7 6 5 5 4 4 4 4 4 6 6 6 7 6 7 7 7 8 9 9 9 7 8 8 8 8 7 7 7 6 6 6 6 6 7 6 6 6 6 7 6 7 7 6 7
4 5 3 5 6 4 7 2 4 3 1 7 4 4 6 13 11 6 5 6 7 10 12 10 7 6 5 5 5 3 4 14 14 15 15 15 13 11 13 14 15 13 11 11 14 9 1 0 2 1 2 4 5 5 4 4 4 4 3 3 3 4 4 4 4 4 5 6 7 7 8 8 9 8 8 9 8 8 8 8 8 8 7 7 7 7 7 6 6 7 7 7 6 6 6 6 5
5 5 3 3 6 4 7 2 7 4 1 4 5 4 8 9 11 5 5 8 8 10 14 12 6 6 6 5 4 4 11 14 17 16 17 15 15 12 13 14 13 13 13 13 13 15 9 3 2 1 2 1 2 4 3 2 3 3 2 2 2 2 3 3 3 3 3 3 4 5 7 7 7 7 7 8 8 8 8 8 8 7 7 8 8 7 7 7 6 6 5 6 7 6 7 6 5
5 6 5 6 4 5 5 2 8 5 4 2 9 5 2 5 9 12 11 10 11 9 14 11 9 7 5 3 2 12 13 14 15 17 16 15 14 13 12 13 12 12 12 12 12 12 12 12 4 3 3 0 0 1 0 0 1 1 1 1 1 2 2 2 1 1 2 3 2 4 4 5 5 6 6 7 8 7 7 7 7 7 7 8 8 7 7 7 7 6 6 6 6 7 7 6 4
4 5 7 4 5 3 4 1 2 5 7 3 7 5 5 5 9 15 17 12 10 10 10 10 8 4 3 3 13 11 14 13 16 15 17 15 13 14 13 12 12 12 11 12 11 11 11 10 8 6 7 5 4 2 2 1 2 2 1 1 1 1 1 1 1 1 1 2 3 3 4 4 4 5 5 5 6 6 6 6 6 7 7 7 7 7 7 6 6 7 7 5 7 6 7 7 6
4 4 6 7 5 5 8 6 2 4 4 4 5 10 10 10 11 13 14 14 10 8 9 9 6 5 5 14 11 13 12 14 12 12 14 14 14 13 11 11 10 11 10 12 12 12 12 11 10 6 6 5 4 4 4 3 3 3 3 3 2 2 2 1 1 1 1 2 2 3 4 5 4 4 4 4 5 5 5 6 7 7 7 7 7 7 7 6 6 6 8 6 5 6 8 6 7
10 8 6 7 7 4 6 9 9 9 7 5 5 7 6 6 7 9 12 16 13 6 9 7 6 5 13 11 12 11 11 12 9 10 11 12 11 12 11 10 10 10 11 11 11 12 12 12 11 10 6 7 5 5 5 4 3 2 1 2 3 2 2 1 1 1 2 2 3 5 4 5 5 5 4 4 4 5 4 4 5 5 6 7 8 8 8 7 8 8 7 8 7 5 6 7 7
11 8 7 7 7 7 6 9 8 4 2 4 4 4 5 7 7 9 15 14 8 9 9 7 8 12 10 11 11 11 13 10 8 8 10 12 12 11 10 10 10 10 11 12 12 12 12 11 11 11 9 8 7 5 3 3 2 2 2 1 0 1 0 1 1 2 3 2 3 4 4 4 4 5 5 5 7 6 6 5 5 5 5 6 6 7 7 7 6 7 7 6 8 6 5 6 7
6 5 5 7 3 9 6 8 7 1 2 2 3 5 6 8 9 15 14 9 8 10 3 11 12 11 10 11 10 11 8 6 6 10 11 11 11 11 9 9 10 13 12 13 13 13 12 12 11 11 11 11 11 9 7 5 3 2 2 1 0 1 2 1 1 1 1 3 3 4 3 3 4 4 4 5 5 6 6 7 7 8 7 7 6 4 5 5 5 6 6 5 4 8 6 8 9
5 5 3 4 5 7 7 10 4 1 2 5 3 5 7 11 16 16 10 8 3 9 13 10 12 10 10 9 10 9 8 7 9 10 10 10 11 11 10 9 10 10 9 11 10 11 13 12 12 11 12 11 10 11 9 6 7 8 8 6 8 4 6 5 4 3 3 3 4 3 3 2 3 3 4 4 5 5 5 6 7 8 9 9 8 8 7 7 7 7 7 8 6 3 3 5 10
5 5 4 6 6 4 3 2 2 2 1 2 3 8 7 11 15 13 13 5 9 12 16 14 12 12 11 11 9 8 6 7 10 10 10 9 10 10 10 10 10 8 8 9 11 11 11 11 12 11 11 10 10 10 10 8 6 6 6 6 5 6 3 4 5 5 5 5 4 2 2 1 2 2 3 4 4 4 5 6 5 6 7 7 9 9 9 10 8 8 7 7 6 6 4 7 8
4 6 6 6 6 5 5 3 4 4 4 4 5 5 5 10 12 7 4 4 15 10 13 13 10 10 9 9 9 8 7 6 9 10 10 10 11 12 12 10 8 9 10 10 11 12 9 11 11 10 10 10 9 10 11 8 7 5 3 3 2 2 2 3 2 2 2 1 1 1 1 0 1 1 2 3 4 4 4 4 4 5 6 6 6 7 9 10 10 10 11 9 10 11 9 5 6
5 5 8 9 6 7 5 3 4 3 4 1 3 3 3 2 5 9 10 3 10 4 12 10 10 8 8 10 9 5 5 6 9 10 10 10 10 9 9 9 11 10 11 10 9 11 11 10 10 10 9 10 10 10 11 9 8 8 8 8 8 6 6 4 3 1 1 2 2 1 1 1 1 1 1 3 3 3 4 4 4 4 5 6 6 6 6 5 8 10 11 11 11 9 10 7 7
2 3 1 1 1 2 2 4 1 2 1 1 1 1 7 1 9 8 7 4 10 3 8 10 9 8 8 8 7 6 5 6 8 9 9 9 9 9 10 12 11 11 10 8 9 11 13 12 11 10 9 9 10 10 10 9 8 8 8 8 7 6 7 5 4 4 6 3 2 1 1 1 1 1 1 1 2 3 4 4 4 4 4 5 5 5 6 7 7 8 7 9 10 10 8 10 12
5 0 2 1 1 1 1 0 2 4 1 4 4 3 6 9 8 6 6 10 9 6 7 10 9 8 9 10 7 6 5 6 7 8 8 7 8 9 10 9 9 9 7 7 9 11 14 13 12 11 10 10 10 10 11 10 8 8 9 8 7 7 7 6 7 5 4 3 3 0 1 1 1 1 1 2 2 3 4 4 4 4 4 4 5 6 6 6 5 5 7 9 8 9 11 11 11
1 1 2 1 1 1 1 2 4 3 2 5 5 6 4 7 5 10 12 13 9 7 8 10 9 8 9 9 8 5 5 5 5 6 7 6 7 7 7 8 7 6 8 9 10 10 12 13 13 11 13 12 11 12 11 11 10 9 8 7 7 6 7 6 6 6 6 2 1 0 0 1 2 1 2 2 2 2 2 4 3 4 4 4 4 4 5 5 6 6 8 9 9 9 9 8 9
1 1 1 1 2 2 5 4 4 3 2 8 5 8 6 11 7 6 8 10 8 5 6 8 8 8 9 8 6 7 5 4 4 5 5 6 6 7 6 6 7 8 7 7 8 10 12 12 13 14 14 12 11 13 12 11 11 9 9 9 8 8 7 7 7 7 6 7 5 2 1 1 2 3 2 2 2 2 3 3 4 4 4 5 4 4 5 5 5 6 7 8 9 11 8 9 11
1 0 1 2 4 5 3 3 2 1 4 11 7 11 10 6 1 7 3 3 9 8 5 7 8 8 9 8 6 4 4 4 4 4 5 5 6 5 5 6 6 6 7 8 11 12 12 12 12 14 12 11 12 12 12 12 11 10 9 9 8 8 8 7 7 7 7 7 6 6 5 2 1 2 3 3 3 3 3 3 4 4 4 4 5 4 5 6 7 6 6 6 8 10 9 9 8
1 0 1 2 6 3 2 1 4 1 6 5 9 13 13 6 4 2 4 4 16 16 15 13 11 9 8 8 7 5 4 4 4 4 5 4 4 4 4 4 4 6 9 12 12 11 12 11 11 13 13 12 11 11 12 12 11 11 10 10 10 9 9 7 7 7 8 7 7 7 7 7 6 2 1 2 3 4 4 4 4 4 4 4 5 5 5 5 6 5 6 6 7 8 8 8 7
1 1 2 1 2 1 2 3 1 5 7 2 8 3 5 10 5 9 8 8 3 4 7 9 10 9 8 8 8 5 4 4 3 4 4 3 3 2 2 3 5 10 11 11 11 9 9 10 11 12 12 11 10 10 11 11 11 11 11 10 10 9 9 9 8 9 7 7 7 7 7 7 7 8 6 2 3 4 4 4 4 4 4 5 5 5 5 5 5 6 6 5 6 7 8 9 9
3 4 4 2 1 2 3 4 3 3 0 3 4 7 1 1 3 3 6 7 7 12 12 11 10 9 8 7 7 5 4 3 4 4 4 2 1 0 2 6 9 9 9 8 8 8 7 8 9 10 10 9 8 9 10 10 10 10 10 9 9 8 8 8 8 8 8 8 8 8 7 7 7 6 7 7 6 3 4 4 4 4 4 4 5 5 5 5 5 6 6 6 6 7 6 8 9
9 3 6 6 4 2 3 2 5 4 4 0 0 4 5 3 3 4 8 7 9 10 11 9 10 9 8 7 7 6 4 4 4 3 3 1 1 4 7 8 8 7 6 6 5 7 6 8 8 9 9 10 9 9 8 9 8 9 9 8 8 7 8 7 7 6 7 8 8 8 8 8 8 8 7 7 7 7 4 3 3 4 4 4 4 5 5 5 5 5 5 6 7 6 7 8 9
4 3 1 1 5 1 7 3 4 2 3 5 2 4 2 3 4 7 6 8 9 8 10 9 9 7 6 7 7 5 3 2 3 4 4 4 4 6 7 7 6 5 5 5 6 5 7 7 7 7 7 6 7 7 7 7 7 7 8 9 9 8 7 6 7 7 7 7 7 7 8 8 8 8 8 8 8 6 6 4 4 4 4 4 4 5 5 5 5 5 6 6 7 4 6 8 8
1 3 1 3 1 1 2 4 4 2 2 8 3 4 6 3 4 6 6 9 7 7 8 8 8 7 6 6 4 3 3 4 4 4 3 4 5 5 6 5 5 5 5 6 6 6 6 6 6 7 7 6 8 7 6 6 6 6 7 8 8 8 9 9 9 9 8 8 8 8 8 9 8 8 8 7 7 7 7 6 5 6 5 5 5 5 5 5 5 5 6 6 7 6 6 7 7
4 0 2 2 1 1 1 3 1 4 7 6 4 6 6 4 6 4 5 8 6 7 6 8 8 6 6 5 3 3 4 4 2 2 2 3 4 4 4 4 4 4 4 5 6 5 5 5 5 6 7 9 8 8 7 7 6 6 6 7 7 7 6 6 7 8 8 8 8 8 8 8 9 9 8 8 8 8 7 6 5 6 6 5 5 5 5 5 5 5 5 6 6 6 7 6 6
4 3 1 1 1 3 2 1 5 7 8 5 4 7 7 4 5 4 3 7 7 7 7 7 7 6 5 4 4 4 3 2 1 1 3 3 3 3 3 4 4 3 4 3 4 4 4 4 4 5 6 6 6 5 5 5 5 5 4 5 5 6 5 5 5 6 6 6 7 7 8 8 8 9 9 9 9 9 8 8 6 6 5 5 5 5 5 5 5 6 6 7 6 6 7 7 7
3 1 2 1 1 4 4 3 2 2 7 4 6 6 7 4 1 4 1 9 9 9 6 6 6 5 5 4 4 3 2 1 1 1 1 1 1 1 1 1 1 1 2 3 3 3 4 3 4 4 3 4 5 5 5 5 5 5 5 4 5 4 5 5 5 5 7 7 6 6 7 8 9 8 8 8 8 8 9 9 8 8 7 6 5 5 5 5 5 6 6 7 7 6 7 7 7
2 2 1 1 1 1 1 2 3 4 4 4 4 7 4 1 2 3 6 7 7 8 8 6 5 4 4 4 4 4 3 3 2 2 1 1 1 1 2 2 2 3 3 3 3 4 3 4 4 4 4 4 5 4 4 5 4 4 4 4 4 4 5 4 5 5 5 6 6 6 6 6 6 8 8 9 9 9 8 9 9 8 7 8 6 6 4 4 5 6 7 6 7 7 7 7 6
1 4 4 6 4 2 4 9 2 3 5 7 7 12 5 1 3 3 5 4 6 6 8 6 4 4 4 4 4 4 4 4 3 2 2 1 1 1 1 2 2 3 2 1 2 2 3 4 3 4 4 3 4 4 4 4 4 4 5 4 4 3 3 4 5 5 5 6 6 6 6 6 6 7 7 8 9 8 8 9 8 8 8 8 8 7 6 4 6 6 7 6 7 7 8 7 6
Wind_Direction
282 249 236 250 264 270 315 227 310 170 226 237 256 44 106 111 308 343 46 6 44 93 59 325 349 309 335 341 292 292 306 313 312 343 233 222 200 168 139 117 239 128 160 130 141 155 159 162 164 162 169 172 173 171 173 171 174 175 175 175 173 175 173 169 170 166 164 163 159 157 155 153 152 151 148 150 146 146 147 140 131 147 181 125 129 119 113 106 97 89 86 85 83 83 84 85 81
271 281 285 265 263 331 273 26 249 274 217 248 25 65 340 77 219 52 27 34 47 16 52 352 305 335 294 273 279 324 279 206 236 37 99 95 152 69 110 158 181 151 166 127 141 156 161 167 166 160 169 171 171 169 174 172 175 171 173 177 176 179 176 172 174 172 172 171 167 166 164 164 161 157 156 154 144 139 144 146 148 165 157 128 131 124 113 112 103 92 83 81 87 87 87 83 78
316 313 284 224 265 215 286 266 298 323 330 45 54 54 4 31 45 11 31 51 31 31 1 263 202 218 237 220 278 216 278 318 82 56 86 148 126 185 125 188 203 145 169 125 146 159 160 168 169 163 168 171 171 169 173 175 175 175 175 178 179 182 179 178 176 180 179 180 176 176 176 175 166 163 158 148 150 145 146 149 160 159 149 136 123 126 123 105 100 89 87 83 78 85 84 81 78
291 284 280 295 290 150 266 190 231 283 316 346 107 74 80 93 29 50 37 66 115 39 17 319 347 112 279 262 328 326 222 6 86 33 122 160 51 140 136 168 234 156 148 129 150 159 164 167 169 166 168 171 171 169 170 173 178 177 177 180 183 186 185 186 185 187 186 187 186 185 181 177 169 167 155 155 149 147 141 141 145 147 141 130 126 121 110 100 92 94 99 95 89 86 88 82 79
289 260 231 301 300 291 328 290 300 333 274 32 358 108 32 47 8 41 16 332 93 88 22 331 281 191 262 294 317 283 20 59 48 60 101 39 38 131 136 135 230 152 139 162 143 160 163 163 171 168 169 172 174 170 169 173 179 181 180 181 185 190 190 194 191 193 193 193 193 193 187 174 174 169 158 152 146 140 138 137 134 134 132 128 122 120 114 102 92 100 110 111 103 84 83 77 74
255 272 178 219 282 152 349 291 238 221 28 35 9 6 22 35 8 25 329 5 113 99 56 306 303 342 316 241 185 233 50 23 235 55 54 144 116 146 130 144 215 163 143 195 144 158 154 163 171 172 173 174 175 173 169 174 181 182 183 185 186 188 195 195 196 198 197 198 197 202 188 177 173 168 158 155 152 148 140 134 132 135 132 133 132 128 126 116 125 117 110 104 94 93 81 77 70
300 288 185 249 279 100 261 293 299 330 61 333 63 5 354 13 30 6 340 0 44 96 38 50 29 304 248 273 171 238 79 138 75 114 58 162 150 138 130 173 185 178 148 187 145 162 147 164 171 175 176 179 178 174 173 174 180 184 186 187 189 190 192 198 201 202 201 203 204 200 196 183 172 174 167 161 156 150 146 137 132 137 133 141 141 149 137 135 124 146 100 85 112 99 92 82 71
239 358 83 287 254 109 216 232 260 238 144 92 116 328 16 353 40 29 322 312 92 22 181 124 98 93 269 115 256 95 59 43 117 124 126 123 109 122 155 174 169 193 149 176 175 142 153 164 170 176 179 181 182 179 178 178 181 185 187 190 190 191 194 197 202 206 206 205 207 198 195 186 180 180 170 152 161 163 157 124 80 177 155 120 71 344 201 164 198 128 99 96 87 99 89 84 78
228 200 49 344 257 182 250 259 248 195 302 82 43 74 125 61 81 30 306 317 263 70 189 131 134 11 19 344 300 134 59 96 88 106 108 123 143 143 171 182 174 187 151 171 151 115 156 166 170 173 177 182 186 182 183 184 185 189 190 193 194 195 197 199 201 208 210 209 208 202 190 186 190 173 147 152 155 153 140 150 155 198 140 154 120 57 255 277 85 108 110 93 97 89 86 83 84
267 128 294 276 350 297 253 244 201 74 267 91 114 6 42 31 14 37 322 296 54 271 98 124 151 223 325 301 303 134 202 139 124 106 126 144 133 166 157 196 182 166 146 172 144 131 145 170 170 172 175 181 185 187 188 188 191 194 194 197 198 199 199 202 205 204 212 210 204 201 195 186 184 174 161 159 163 160 156 155 175 211 161 144 131 146 141 136 143 113 97 101 102 91 84 83 82
256 178 165 338 233 245 265 346 14 346 342 32 61 75 62 57 15 325 257 246 233 243 164 123 168 214 255 271 237 10 105 151 155 144 153 138 141 162 165 182 192 162 155 165 154 128 144 168 171 171 179 179 184 189 190 193 195 195 200 202 202 200 201 202 205 205 207 208 203 197 191 189 186 181 173 166 167 167 162 167 178 210 201 180 160 239 237 140 179 142 110 106 101 99 94 89 82
275 180 94 300 293 311 334 11 332 315 320 288 96 82 33 87 285 276 347 337 345 328 307 144 66 332 320 281 277 190 137 84 79 119 117 129 178 171 166 157 178 178 160 159 138 140 144 157 169 178 177 182 184 188 191 192 195 198 200 204 207 205 205 207 206 206 204 204 198 194 193 190 187 183 183 174 168 166 168 172 178 209 204 161 196 210 221 201 182 137 115 104 107 108 104 99 89
265 329 276 281 271 307 338 332 277 360 287 17 108 69 117 103 280 329 329 340 308 306 36 35 18 9 296 295 186 125 104 341 87 114 142 172 163 151 249 148 175 187 162 145 147 179 150 158 171 176 183 182 186 192 191 192 193 199 199 201 207 209 208 211 210 207 203 200 191 190 190 188 183 178 164 167 170 169 173 176 175 197 217 206 191 181 196 201 178 165 126 109 120 116 107 101 92
317 336 355 284 336 301 279 270 289 252 298 127 66 151 110 322 88 353 334 294 305 320 88 12 345 69 282 261 298 129 203 182 143 129 174 152 120 146 192 149 165 174 175 156 183 185 176 156 172 174 178 183 187 191 197 195 194 196 197 200 204 209 209 211 212 208 203 199 191 188 190 180 173 170 164 172 172 165 169 168 177 194 206 200 187 185 194 194 182 165 134 147 135 123 109 94 84
318 336 321 290 288 313 258 238 298 19 285 82 186 143 229 170 257 241 288 297 283 114 200 196 198 102 251 349 237 177 185 173 150 157 118 106 113 152 159 167 141 189 179 171 187 195 190 181 169 174 179 184 190 189 190 198 197 196 195 197 200 204 202 206 211 207 200 197 191 190 185 169 168 170 165 167 161 156 155 150 163 185 210 195 190 183 192 197 173 161 152 166 145 132 113 99 87
304 351 249 283 272 295 297 100 249 141 265 99 199 78 251 296 165 306 290 309 290 324 12 294 128 225 281 292 270 284 153 150 167 150 148 151 155 159 143 193 161 186 231 187 193 196 196 194 177 177 179 186 191 190 192 190 199 198 197 197 198 197 196 199 205 200 196 196 190 184 171 158 159 164 162 155 154 150 146 140 145 179 211 199 190 188 191 189 174 160 175 166 148 137 123 107 100
322 34 288 212 264 233 217 219 78 271 336 60 184 144 319 336 66 304 85 351 305 285 289 256 248 196 242 245 259 167 154 151 147 159 156 154 154 181 165 193 203 185 195 215 200 197 199 192 198 175 183 187 190 193 193 195 193 194 198 200 196 193 190 192 198 192 189 186 178 177 158 151 150 146 155 146 143 146 149 145 145 167 200 219 176 179 193 185 171 174 177 170 149 133 114 109 107
128 205 204 263 246 273 334 336 343 8 338 327 289 346 346 312 25 166 13 267 240 262 264 261 249 249 239 238 237 208 147 151 171 162 181 185 171 185 190 197 182 205 192 199 209 203 191 202 201 190 179 187 189 192 196 194 189 187 193 192 194 193 189 185 189 186 184 176 167 159 165 164 156 145 161 142 147 146 148 145 151 162 198 190 174 181 190 181 173 180 177 169 145 121 112 93 85
193 263 233 248 276 287 339 319 318 357 330 334 319 327 3 323 6 346 313 301 310 306 286 292 288 267 240 238 236 221 157 183 177 187 196 196 187 201 199 189 196 197 196 193 201 204 198 198 197 202 191 185 187 191 196 193 185 179 190 191 190 193 190 186 186 190 180 175 167 168 174 172 164 153 166 154 152 149 149 146 152 162 182 167 177 175 180 176 178 183 176 167 136 137 136 137 135
220 232 262 266 267 275 279 310 326 337 312 301 333 359 355 317 305 295 247 290 298 276 285 296 278 276 318 333 252 233 207 206 193 190 211 219 214 213 214 198 193 203 200 191 193 195 196 193 198 199 197 187 185 189 192 188 184 175 185 190 189 191 196 191 194 190 186 180 169 172 180 175 172 159 170 157 148 145 150 149 152 157 159 164 159 154 171 172 179 181 175 148 136 156 193 159 157
179 188 227 251 295 330 315 314 309 327 18 12 342 337 310 294 294 31 309 301 260 261 258 264 283 308 315 314 315 313 299 269 208 199 211 218 226 225 225 223 205 197 201 184 179 191 194 196 194 199 195 189 186 188 187 191 185 166 185 187 190 189 195 195 198 198 192 190 172 176 181 183 174 167 154 151 150 144 150 151 152 152 141 153 149 140 139 147 150 124 126 123 162 193 231 169 163
333 239 247 270 303 292 297 307 355 24 20 307 305 303 289 318 295 260 221 245 256 254 273 278 279 286 289 297 299 297 285 278 269 243 215 217 224 228 227 241 243 222 174 177 188 188 193 194 192 192 194 193 190 188 188 187 186 184 177 187 188 192 189 196 197 201 202 196 185 175 177 183 181 155 145 153 153 146 152 157 160 156 149 157 155 145 146 141 135 130 136 168 201 210 204 164 167
234 231 244 242 248 258 277 283 46 45 338 315 297 280 311 296 285 274 270 256 259 255 266 272 272 269 269 279 287 283 276 269 269 251 251 256 255 248 227 220 221 224 198 195 181 188 186 192 193 188 193 192 192 189 186 183 191 192 182 177 184 194 193 191 198 197 201 199 192 176 175 185 186 158 152 155 161 154 156 159 165 165 160 158 168 149 157 155 151 148 158 183 217 188 154 100 74
212 254 312 297 299 285 291 295 329 318 293 274 267 308 282 285 283 269 270 262 261 262 260 269 278 279 273 265 262 270 275 274 261 258 245 238 235 241 227 218 221 221 194 207 186 179 171 189 191 188 194 194 193 188 190 191 189 189 192 188 185 186 188 190 186 189 189 196 193 187 178 181 181 166 156 156 171 159 159 158 161 168 168 159 172 157 157 158 168 162 166 191 191 141 125 124 117
263 250 235 251 262 281 292 289 280 277 266 273 286 271 261 262 264 295 267 274 270 262 258 265 268 275 275 264 261 260 267 274 272 261 259 250 237 239 242 224 216 215 222 209 197 180 178 183 186 192 191 194 194 190 197 192 186 189 189 194 193 182 186 185 181 179 184 187 190 187 176 178 176 169 159 160 162 166 160 159 164 174 167 159 164 184 164 162 174 164 168 180 150 140 139 153 155
238 289 333 333 299 302 306 306 294 281 284 233 254 258 260 258 273 261 260 261 263 266 256 251 261 264 260 262 271 272 268 263 266 273 253 242 233 231 237 228 232 240 232 229 194 202 189 177 186 191 191 193 191 190 198 196 191 188 191 194 188 182 188 183 176 178 182 181 186 182 176 174 171 174 155 154 162 174 169 165 167 173 167 159 161 184 167 154 166 160 162 157 150 149 153 174 148
24 315 312 307 299 300 282 269 270 263 261 252 253 273 270 265 276 274 247 248 254 260 262 237 237 246 260 279 281 284 285 281 267 256 277 264 265 224 240 232 226 240 258 266 228 206 200 177 189 191 194 190 188 194 197 201 195 194 190 188 187 187 183 178 177 176 178 181 179 175 171 173 163 168 150 155 163 172 174 170 171 166 161 163 164 169 160 156 162 164 162 160 159 153 165 162 143
344 329 313 291 283 270 267 260 257 255 254 223 243 270 282 274 241 251 261 261 257 268 274 270 242 252 269 273 276 278 273 274 288 326 295 297 273 245 240 218 234 241 244 255 246 221 184 199 193 189 191 186 186 197 195 205 206 200 191 187 192 187 176 181 179 176 180 181 174 173 169 173 162 169 151 161 164 173 175 169 169 162 168 161 162 157 155 159 163 163 158 157 156 147 146 154 144
354 339 296 281 280 275 264 261 260 228 236 142 130 327 289 263 211 240 249 257 267 272 280 282 290 281 281 299 306 301 278 288 315 304 282 273 298 353 351 353 294 235 240 225 222 207 205 212 201 196 185 180 188 192 192 202 206 201 190 193 192 188 184 182 185 182 178 178 171 168 172 173 171 165 161 162 163 168 169 168 171 169 164 154 153 149 148 154 154 154 162 151 148 132 136 156 144
294 254 256 285 280 269 265 253 242 218 188 120 105 287 278 286 289 309 305 338 312 299 285 285 284 288 290 288 291 296 303 313 1 21 25 23 22 22 24 18 18 10 357 359 351 191 216 204 194 172 180 172 186 192 185 186 198 207 199 190 188 185 188 189 193 184 176 174 170 170 171 173 177 168 158 162 161 165 171 171 169 165 157 150 146 145 155 159 155 150 161 146 152 142 150 160 143
259 266 250 266 307 272 271 227 128 145 141 140 123 226 272 290 289 286 315 341 332 310 296 294 307 305 292 286 278 302 336 45 43 31 23 24 20 23 25 18 14 8 10 5 0 321 210 146 114 130 154 175 168 190 187 178 184 194 189 191 185 179 184 185 193 190 180 178 167 170 173 176 177 170 162 160 164 165 169 168 170 170 156 151 150 158 154 160 149 159 158 151 149 144 148 163 152
257 292 241 230 199 258 273 241 147 174 208 199 116 248 248 266 289 306 325 320 313 298 289 290 303 293 299 307 324 343 49 41 35 29 21 18 16 16 23 16 11 13 16 8 1 1 339 23 105 78 98 117 146 186 186 154 160 176 173 169 167 172 170 186 190 199 190 181 164 160 176 176 177 172 162 160 165 170 168 169 174 164 158 151 153 157 156 166 162 160 177 154 154 163 153 173 159
239 218 261 263 252 277 300 270 162 170 112 266 164 226 278 283 300 304 299 291 284 282 282 291 284 281 294 290 341 48 43 34 30 26 18 13 12 12 18 13 16 13 15 10 10 1 4 360 8 93 67 53 27 109 96 74 89 116 130 125 148 138 157 163 170 173 168 170 151 155 176 176 181 178 164 164 166 168 167 166 170 165 157 155 155 162 166 170 160 164 180 181 166 159 159 164 157
254 220 246 238 247 256 251 342 109 120 133 193 234 247 237 263 292 290 289 281 275 275 283 290 292 304 311 5 58 57 50 40 30 18 14 12 7 10 11 12 14 12 14 13 10 11 5 0 5 39 30 32 26 54 95 50 34 47 42 61 75 92 111 97 99 116 155 154 137 147 168 178 186 185 168 163 167 168 163 162 165 162 156 155 156 162 177 169 166 163 176 186 172 154 161 160 153
259 308 308 297 304 323 310 318 252 143 168 234 213 219 240 245 247 261 276 288 283 282 292 293 310 322 18 62 61 57 53 48 34 26 20 13 9 6 7 6 12 13 13 11 15 16 11 6 2 19 44 7 27 41 62 58 41 33 36 39 44 47 70 65 73 78 91 90 113 126 149 160 176 182 172 159 161 166 162 162 165 166 159 159 158 164 174 175 171 171 170 182 175 166 160 162 149
263 272 277 299 302 297 293 284 292 291 285 268 253 272 286 294 290 281 280 275 282 292 284 295 290 26 61 63 62 56 55 52 37 30 28 25 15 7 6 7 10 13 15 13 20 22 18 13 6 5 17 20 30 38 58 47 45 53 41 19 25 17 32 50 27 78 92 100 110 114 129 139 158 175 171 163 157 158 162 170 159 160 165 160 165 167 178 180 179 175 177 174 172 158 152 147 132
258 265 261 264 284 288 278 281 295 65 321 236 263 282 292 284 280 283 271 277 294 286 276 289 56 70 65 66 60 61 55 47 33 29 33 31 24 12 9 9 10 15 21 18 23 24 21 16 12 8 360 16 23 36 55 68 59 26 33 57 52 112 64 49 49 19 40 51 76 88 117 123 157 172 174 163 175 166 170 161 143 164 162 167 173 185 178 183 180 175 171 174 164 158 162 144 144
279 296 298 285 274 277 270 290 297 190 137 271 310 290 281 291 286 271 272 290 280 280 347 71 74 68 69 63 61 58 57 53 35 32 29 30 25 20 13 15 12 21 19 21 25 23 18 16 18 14 14 14 17 19 21 32 38 48 89 48 124 99 102 92 48 39 30 54 68 87 116 124 154 172 176 177 181 174 174 171 160 166 165 175 181 173 179 182 175 177 163 171 191 164 171 161 160
299 289 300 305 271 270 286 275 276 87 126 260 308 313 295 291 282 282 279 268 308 52 77 71 77 65 59 55 58 50 47 44 38 38 29 28 26 25 22 18 22 17 18 27 25 31 26 21 20 26 22 16 16 13 20 19 30 34 47 28 33 11 40 50 56 40 61 62 56 63 91 119 131 157 173 176 183 191 186 180 178 171 175 170 167 177 179 185 187 183 179 176 182 193 146 175 169
238 261 262 243 250 244 285 215 130 145 113 266 277 280 286 282 275 278 281 255 90 85 81 75 74 79 68 62 49 46 38 33 41 35 27 21 28 26 26 25 19 13 18 27 33 38 35 27 24 27 24 17 15 13 10 2 39 48 44 46 54 72 58 31 44 35 32 43 41 28 32 71 116 148 172 187 190 199 197 196 186 177 186 179 177 178 180 187 183 185 183 188 167 172 184 195 196
232 220 226 250 255 252 247 289 333 333 293 260 284 290 279 263 275 284 290 151 97 93 91 89 81 81 87 82 70 56 40 26 44 37 28 23 23 27 25 21 13 22 18 26 33 38 37 31 31 29 25 21 15 16 13 4 19 26 37 38 50 57 59 77 68 59 81 57 68 86 274 93 133 161 177 198 198 213 218 211 197 187 185 191 183 188 191 194 190 188 185 179 183 184 193 183 210
271 245 219 229 234 250 268 330 7 349 312 12 87 337 243 259 312 320 300 260 95 101 97 90 88 78 75 61 56 47 47 42 44 38 34 23 23 20 25 20 27 23 23 17 29 44 42 37 34 32 28 24 19 16 18 17 21 31 27 26 19 13 10 21 16 32 156 165 205 215 179 168 218 221 181 202 218 225 234 233 224 191 193 193 195 200 203 196 198 196 194 188 191 198 182 166 192
238 257 18 25 31 40 13 302 20 289 194 253 163 124 275 222 273 262 261 243 107 112 96 104 98 93 77 77 65 36 24 44 44 46 34 29 16 22 24 24 22 25 17 9 26 41 44 42 38 35 31 28 21 17 20 22 26 24 30 27 25 26 17 0 6 37 40 24 68 72 158 154 203 200 262 211 218 234 242 248 243 229 204 198 202 203 206 207 209 208 199 198 199 193 166 184 192
249 147 293 49 242 238 233 226 174 247 288 268 241 163 251 275 245 254 248 254 130 125 112 98 94 90 88 88 72 48 31 28 44 44 41 29 23 25 28 21 22 22 6 11 31 38 42 41 39 36 34 31 26 20 22 22 26 26 31 28 26 26 18 1 360 4 34 61 38 351 107 186 209 218 247 271 240 223 229 250 251 251 241 222 204 211 215 218 215 218 211 211 207 202 195 192 193
188 225 37 47 48 15 64 185 230 231 317 269 194 218 267 253 232 221 236 247 138 141 128 116 113 107 101 93 94 92 63 42 43 50 46 32 31 28 25 28 22 21 18 22 30 35 43 42 39 36 37 33 27 24 25 24 25 24 28 22 22 14 9 359 355 1 360 21 30 338 337 207 186 225 236 253 263 252 232 233 248 250 248 248 225 225 226 224 219 208 209 211 212 215 212 203 184
116 227 166 129 169 199 198 198 208 267 186 257 189 185 216 270 261 251 228 226 138 139 134 121 115 113 105 102 104 100 96 77 52 52 46 39 32 29 23 20 27 26 23 26 35 40 42 41 38 36 35 32 28 28 27 26 23 23 24 18 22 9 4 359 2 358 358 353 348 308 246 233 207 188 218 249 265 257 246 240 244 244 241 241 237 228 233 236 236 228 216 215 215 219 221 214 208
167 96 12 282 244 238 215 180 169 267 240 252 207 203 180 287 288 236 163 207 130 144 122 113 118 111 102 96 86 72 81 72 71 58 43 41 29 28 17 25 22 26 28 29 35 39 39 40 38 39 33 33 28 31 31 30 27 24 22 16 14 11 4 4 360 357 353 352 345 332 331 302 211 187 181 212 225 239 239 240 235 241 243 242 241 243 236 229 230 229 225 222 220 220 222 227 230
119 111 206 307 282 186 159 195 124 164 265 268 212 206 191 205 285 28 57 88 152 160 164 156 142 127 118 110 98 86 73 68 71 66 53 35 29 21 16 23 20 32 38 35 33 35 37 36 36 40 34 30 30 27 31 32 30 28 28 21 16 10 3 2 359 1 355 350 348 345 340 350 341 328 176 185 228 228 222 240 241 244 250 250 246 235 238 237 237 238 234 221 224 225 227 229 234
128 171 263 171 281 69 252 101 283 211 237 259 11 5 194 226 248 318 56 31 56 64 105 118 114 107 98 92 94 87 71 80 69 67 63 46 27 11 5 23 34 35 36 32 30 31 34 36 35 39 33 26 27 26 32 32 32 30 27 23 21 14 8 7 3 2 352 350 346 345 347 347 347 352 338 304 261 219 211 224 246 243 249 248 248 249 248 239 234 235 235 233 224 221 223 225 228
162 184 176 171 291 226 245 237 211 243 223 311 49 26 330 355 284 307 87 53 44 81 92 103 106 105 102 99 95 85 76 71 69 55 55 47 351 253 32 43 40 36 33 30 30 32 31 36 35 38 35 25 24 29 29 29 30 29 26 26 22 18 13 11 12 5 358 354 350 346 342 342 344 339 340 339 321 270 210 215 218 236 239 246 247 248 249 250 243 236 236 238 233 228 223 229 235
201 207 159 176 178 176 247 222 234 225 217 86 268 23 226 127 253 62 95 86 76 69 75 78 84 93 98 98 89 86 72 46 56 67 59 33 350 35 43 39 39 37 29 27 32 32 31 35 32 35 33 26 23 24 25 28 26 24 25 24 24 20 14 11 7 3 1 2 356 353 349 348 348 338 340 333 341 343 295 244 241 249 263 259 260 263 261 258 254 252 249 243 237 224 227 227 232
205 227 65 45 227 155 241 245 275 305 336 314 261 192 260 311 121 87 87 89 82 84 91 89 90 85 76 72 72 73 73 78 46 45 37 29 32 34 35 37 37 31 28 30 35 34 35 33 33 37 37 28 26 24 25 23 19 22 23 24 22 19 15 12 10 6 6 4 354 356 350 348 341 336 336 338 333 337 335 328 316 292 277 275 269 262 263 260 257 254 258 257 256 241 229 228 231
314 58 199 212 344 60 293 323 257 265 263 249 218 282 268 110 60 105 106 100 96 99 97 96 90 87 80 75 83 83 77 61 50 45 33 31 31 37 44 43 31 27 31 32 31 33 37 34 34 33 32 28 27 23 23 23 16 24 22 21 17 17 17 15 12 6 6 2 1 357 357 346 339 340 333 334 329 328 326 323 310 294 285 276 274 270 265 261 255 249 249 255 258 257 247 241 235
52 196 238 316 214 86 163 243 265 255 248 267 271 276 287 309 280 130 133 104 120 101 108 105 103 95 93 99 103 91 76 72 75 59 50 51 53 41 38 43 44 37 34 36 35 25 34 35 37 38 30 29 17 18 15 18 15 16 18 15 13 13 13 9 8 8 359 3 1 2 356 356 350 339 339 333 334 329 324 316 307 291 281 279 269 268 264 260 261 259 250 247 246 251 256 261 249
168 211 17 42 290 312 261 129 253 246 244 264 210 259 262 231 236 118 189 139 133 126 122 124 120 119 128 131 112 98 95 97 88 71 44 26 42 47 30 39 36 29 34 43 48 43 33 38 36 49 42 34 24 14 11 6 19 11 14 10 10 9 9 9 0 4 359 3 1 359 358 350 344 345 346 344 340 337 333 324 320 306 292 280 274 269 264 263 254 256 256 254 254 245 245 251 251
101 64 355 214 115 211 252 222 223 202 265 282 248 254 256 255 30 310 155 128 138 139 140 121 127 128 131 129 124 135 130 105 75 49 70 27 60 66 57 66 48 26 29 31 46 41 35 28 37 35 34 34 26 19 10 7 358 7 1 5 2 13 6 8 3 6 2 359 353 354 352 355 348 343 345 343 342 341 336 333 328 324 315 298 281 273 270 264 262 250 249 250 251 245 246 246 248
328 37 286 7 213 201 157 321 235 223 265 231 277 256 260 305 321 36 102 130 147 145 132 126 112 114 126 139 156 156 163 165 183 167 168 122 74 68 53 51 16 31 15 34 39 26 23 22 19 19 31 12 24 357 3 341 348 338 6 356 353 359 359 359 3 1 7 352 351 349 348 348 339 348 346 343 343 339 336 332 327 326 324 317 302 286 278 273 265 262 256 246 248 244 245 248 245
167 161 204 205 193 255 219 258 218 206 226 250 252 257 242 147 342 54 78 77 90 96 110 112 140 149 167 157 180 171 170 174 157 151 126 96 91 58 80 33 51 58 41 36 55 53 4 17 358 358 14 2 27 1 359 338 331 324 338 331 336 341 348 352 7 354 4 351 348 346 340 345 345 334 342 337 336 333 334 332 330 323 321 319 319 308 292 286 277 273 268 257 252 246 245 246 240